Location: Casalecchio di Reno
(44.4760°N, 11.2757°E)
Time: 20:23:39
(UTC+02:00)

QB50P2 - Pass Details

Date: 20 June 2024
Orbit: 561 x 578 km, 98.0° (Epoch: 18 July)

Event Time Altitude Azimuth Distance (km) Brightness Sun altitude
Rises 03:49:53 0° 16° (NNE) 2,770 ? -13.6°
Reaches altitude 10° 03:52:03 10° 20° (NNE) 1,866 ? -13.4°
Maximum altitude 03:56:03 62° 101° (E) 635 ? -12.9°
Enters shadow 03:59:28 14° 182° (S) 1,628 ? -12.6°
